Regional Weather Roundup
Issued by NWS Kansas City/Pleasant Hill, MO

Home | Current Version | Previous Version | Graphics & Text | Print | Product List | Glossary Off
Versions: 1 2 3 4 5 6 7 8 9 10 11 12 13 14 15 16 17 18 19 20 21 22 23 24 25 26 27 28 29 30 31 32 33 34 35 36 37 38 39 40 41 42 43 44 45 46 47 48 49 50

000
ASUS43 KEAX 192110
RWREAX

WEATHER ROUNDUP FOR EASTERN KANSAS AND NORTHWEST MISSOURI
NATIONAL WEATHER SERVICE KANSAS CITY/PLEASANT HILL MO
300 PM CST MON FEB 19 2018

KSZ040-057-103>105-MOZ028-029-037-043-192200-
...KANSAS CITY METROPOLITAN AREA...

CITY           SKY/WX    TMP DP  RH WIND       PRES   REMARKS
K.C. INTL      FRZ DRZL  32  30  92 NW9       29.78R FOG     WCI  24
K.C. DOWNTOWN  CLOUDY    36  31  82 NW10      29.78R WCI  28
LEES SUMMIT    CLOUDY    40  36  86 NW9       29.76R WCI  34
OLATHE - IXD   CLOUDY    35  33  92 NW10      29.77F WCI  27
OLATHE - OJC   CLOUDY    35  32  88 N12       29.76S WCI  27
LAWRENCE       CLOUDY    34  31  88 NW10      29.80R WCI  26

$$

MOZ001>008-011>017-020>025-030>033-038>040-044>046-053-054-192200-
...NORTHERN AND CENTRAL MISSOURI...

CITY           SKY/WX    TMP DP  RH WIND       PRES   REMARKS
ST. JOSEPH     CLOUDY    31  31 100 NW12      29.80R WCI  22
MOSBY          CLOUDY    36  32  87 NW9       29.77S WCI  29
WARRENSBURG    RAIN      50  46  87 NW8       29.74R
WHITEMAN AFB   DRIZZLE   63  61  94 S14       29.68S
CLINTON        LGT RAIN  61  61 100 SW6       29.74S
SEDALIA        RAIN      63  63 100 S13       29.75R FOG
WARSAW         NOT AVBL
CHILLICOTHE      N/A     42  37  82 NW8       29.75R
KIRKSVILLE     CLOUDY    62  61  96 S14       29.70R

$$

MOZ041-047>049-056>058-063>065-088>090-097-192200-
...EASTERN AND SOUTHERN MISSOURI...

CITY           SKY/WX    TMP DP  RH WIND       PRES   REMARKS
ST. LOUIS INTL CLOUDY    62  60  93 SE8       29.86F
SPIRIT OF STL  CLOUDY    63  60  90 CALM      29.85S
COLUMBIA       CLOUDY    61  60  97 S9        29.78R FOG
JEFFERSON CITY CLOUDY    64  59  83 SE14      29.77F
ROLLA          CLOUDY    63  59  87 S21G30    29.83S
OSAGE BEACH    CLOUDY    65  60  84 S14G23    29.78F
SPRINGFIELD    LGT RAIN  65  60  84 S21G29    29.79F
BRANSON        CLOUDY    68  57  68 S16G29    29.86S
JOPLIN         CLOUDY    66  64  93 S22G31    29.75R
WEST PLAINS    CLOUDY    67  56  67 S15G26    29.91S

$$

IAZ060-094-KSZ022-034>040-054-083-096-NEZ052-066-093-192200-
...KANSAS...SOUTHEAST NEBRASKA AND IOWA...

CITY           SKY/WX    TMP DP  RH WIND       PRES   REMARKS
TOPEKA         CLOUDY    34  29  82 NW10      29.80R WCI  26
MANHATTAN      CLOUDY    31  22  69 N6        29.82F WCI  25
EMPORIA        CLOUDY    31  27  85 NW13      29.80R WCI  21
CHANUTE        LGT RAIN  40  39  97 N9        29.76S FOG     WCI  34
WICHITA        CLOUDY    32  25  75 N14       29.80S WCI  22
OMAHA          CLOUDY    24  21  88 N14       29.82R WCI  12
LINCOLN        FLURRIES  23  19  85 N13       29.84S WCI  11
FALLS CITY     CLOUDY    27  25  92 NW9       29.80R WCI  18
LAMONI         CLOUDY    35  33  92 NW12      29.72S WCI  27
DES MOINES     CLOUDY    34  33  96 NW12      29.72R FOG     WCI  25

$$




USA.gov is the U.S. government's official web portal to all federal, state and local government web resources and services.